Regional Weather Roundup
Issued by NWS

Home | Current Version | Previous Version | Graphics & Text | Print | Product List | Glossary On
Versions: 1 2 3 4 5 6 7 8 9 10 11 12 13 14 15 16 17 18 19 20 21 22 23 24 25 26 27 28 29 30 31 32 33 34 35 36 37 38 39 40 41 42 43 44 45 46 47 48 49 50
000
ASUS43 KFSD 270610
RWRSD

WEATHER ROUNDUP FOR SOUTH DAKOTA
NATIONAL WEATHER SERVICE SIOUX FALLS SD
100 AM CDT MON JUN 27 2022

NOTE: "FAIR" INDICATES FEW OR NO CLOUDS BELOW 12,000 FEET WITH NO
SIGNIFICANT WEATHER AND/OR OBSTRUCTIONS TO VISIBILITY.


SDZ001>005-009-010-012>017-270700-
NORTHWEST AND NORTH CENTRAL SOUTH DAKOTA

CITY           SKY/WX    TMP DP  RH WIND       PRES   REMARKS
BUFFALO          N/A     57  40  52 SE7       30.29S
MOBRIDGE       CLEAR     53  48  83 CALM      30.27S
$$

SDZ012>016-024>037-041>051-057-063-072>074-270700-
SOUTHWEST AND SOUTH CENTRAL SOUTH DAKOTA

CITY           SKY/WX    TMP DP  RH WIND       PRES   REMARKS
RAPID CTY ARPT CLEAR     55  40  56 E3        30.33F
PIERRE         CLEAR     55  50  83 E3        30.29F
CUSTER         CLEAR     46  37  71 CALM      30.43F
PHILIP         CLEAR     55  45  68 E6        30.31S
PINE RIDGE     CLEAR     49  40  71 NE3       30.36S
SPEARFISH      FAIR      54  43  66 SE8       30.34F
WINNER         CLEAR     60  47  61 S7        30.34S
$$

SDZ004>011-016>023-039-040-270700-
NORTHEAST SOUTH DAKOTA

CITY           SKY/WX    TMP DP  RH WIND       PRES   REMARKS
ABERDEEN       CLEAR     55  50  83 SW7       30.28S
WATERTOWN      CLEAR     57  45  64 SW9       30.29S
BROOKINGS      CLEAR     53  46  77 CALM      30.31S
SISSETON         N/A     67  46  47 W10       30.22S
$$

SDZ017-020-022-023-036>040-048>070-270700-
SOUTHEAST SOUTH DAKOTA

CITY           SKY/WX    TMP DP  RH WIND       PRES   REMARKS
SIOUX FALLS    CLEAR     59  48  67 CALM      30.31S
HURON          CLEAR     59  49  69 SW3       30.30S
CHAMBERLAIN    CLEAR     53  48  84 CALM      30.32F
MADISON          N/A     55  46  71 CALM      30.32S
MITCHELL       CLEAR     55  48  77 CALM      30.32R
YANKTON        CLEAR     57  47  69 CALM      30.32F
$$

ABBREVIATIONS USED IN REMARKS
   TC - TEMPERATURE IN CELSIUS
  WCI - WIND CHILL INDEX
   HX - HEAT INDEX
  VSB - VISIBILITY




USA.gov is the U.S. government's official web portal to all federal, state and local government web resources and services.